FW9620 Weather Reports


Display with metric or nautical units.
time (UTC)temp
F
wind
direction
speed
MPH
gust
MPH
rain 1hr
in
rain 24hr
in
rain mn
in
humidity
%
barometer
mb
20260505004551 74 220 2.0 8.0 0.00 0.00 0.00 58 1003.7
20260505003056 74 175 3.0 9.0 0.00 0.00 0.00 57 1003.7
20260505001549 75 190 4.0 10.0 0.00 0.00 0.00 55 1003.8
20260505000100 76 196 5.0 13.0 0.00 0.00 0.00 53 1003.8
20260504234552 77 243 4.0 12.0 0.00 0.00 0.00 54 1003.8
20260504233104 77 167 5.0 17.0 0.00 0.00 0.00 54 1003.8
20260504231553 78 214 9.0 16.0 0.00 0.00 0.00 52 1003.9
20260504230100 78 224 7.0 19.0 0.00 0.00 0.00 51 1004.0
20260504224552 79 193 4.0 14.0 0.00 0.00 0.00 53 1003.9
20260504223102 79 192 7.0 15.0 0.00 0.00 0.00 52 1003.9
20260504221555 79 240 9.0 16.0 0.00 0.00 0.00 50 1004.0
20260504220100 79 194 6.0 16.0 0.00 0.00 0.00 51 1004.1
20260504214614 79 234 11.0 24.0 0.00 0.00 0.00 50 1004.1
20260504213125 79 245 11.0 23.0 0.00 0.00 0.00 50 1004.3
20260504211555 80 244 10.0 24.0 0.00 0.00 0.00 49 1004.5
20260504210051 80 167 9.0 21.0 0.00 0.00 0.00 49 1004.4
20260504204601 79 217 12.0 25.0 0.00 0.00 0.00 48 1004.6
20260504203103 79 165 12.0 23.0 0.00 0.00 0.00 49 1004.6
20260504201616 80 200 11.0 25.0 0.00 0.00 0.00 49 1004.7
20260504200054 80 228 10.0 30.0 0.00 0.00 0.00 49 1004.8
20260504194555 79 327 11.0 26.0 0.00 0.00 0.00 48 1004.9
20260504193102 80 187 10.0 24.0 0.00 0.00 0.00 49 1005.1
20260504191601 79 215 11.0 20.0 0.00 0.00 0.00 49 1005.2
20260504190113 80 159 7.0 20.0 0.00 0.00 0.00 48 1005.4
20260504184611 79 85 9.0 25.0 0.00 0.00 0.00 49 1005.5
20260504183050 79 229 14.0 24.0 0.00 0.00 0.00 49 1005.8
20260504181552 78 229 8.0 17.0 0.00 0.00 0.00 50 1005.8
20260504180054 76 235 15.0 30.0 0.00 0.00 0.00 49 1006.0
20260504174549 77 171 9.0 23.0 0.00 0.00 0.00 49 1006.0
20260504173049 78 221 14.0 25.0 0.00 0.00 0.00 49 1006.0
20260504171550 78 246 10.0 22.0 0.00 0.00 0.00 50 1005.8
20260504140113 68 188 10.0 23.0 0.00 0.00 0.00 56 1007.4
20260504120110 63 167 6.0 12.0 0.00 0.00 0.00 60 1007.8
20260504081552 65 219 6.0 13.0 0.00 0.00 0.00 58 1008.5
20260504050107 66 175 6.0 11.0 0.00 0.00 0.00 57 1009.7
20260504044557 66 167 6.0 14.0 0.00 0.00 0.00 56 1009.7
20260504043052 67 168 6.0 13.0 0.00 0.00 0.00 55 1009.9
20260504041552 67 167 7.0 13.0 0.00 0.00 0.00 54 1010.0
20260504034552 68 186 8.0 13.0 0.00 0.00 0.00 53 1010.3
20260504033104 68 153 7.0 15.0 0.00 0.00 0.00 52 1010.4
20260504031600 69 164 7.0 14.0 0.00 0.00 0.00 52 1010.4
20260504030051 69 161 7.0 14.0 0.00 0.00 0.00 51 1010.3
20260504024600 69 153 7.0 12.0 0.00 0.00 0.00 51 1010.4
20260504023054 68 167 4.0 8.0 0.00 0.00 0.00 53 1010.5
20260504021555 68 173 1.0 6.0 0.00 0.00 0.00 54 1010.4
20260504020051 68 182 1.0 4.0 0.00 0.00 0.00 54 1010.5
20260504014555 68 169 1.0 4.0 0.00 0.00 0.00 53 1010.5
20260504013104 68 167 1.0 4.0 0.00 0.00 0.00 51 1010.4
20260504011554 69 0 0.0 3.0 0.00 0.00 0.00 51 1010.4